DLH224 KDEN-EDDF

Flight info

Callsign DLH224
Flight time N/A
Altitude 37000
Route EEONS8 WYNDM DCT KD63A DCT LNK DCT DBQ DCT BAE DCT DAYYY DCT 46N078W DCT BAREE N551A UMESI/M085F370 DCT 5130N05000W 5330N04000W 5430N03000W 5430N02000W DCT NEBIN DCT OLGON/N0489F370 DCT ENJEX DCT ADHAV DCT AGCAT DCT AXNEF DCT ZIPWE DCT OZZIL DCT SAWPE Q63 CPT UL9 BIG L607 KONAN UL607 SPI T180 NIVNU T847 IMCOM IMCOM1D
Aircraft A359/H-SDE2E3GHIJ3J4J5LM1ORWXY/LB1D1

Departure

Time 2026-05-08 04:17
Airport Denver International Airport (KDEN)

Arrival

Time N/A
Airport Frankfurt Main Airport (EDDF)
Time Latitude Longitude Altitude Speed Heading
2026-05-08 03:45 39.85443 -104.67219 5392 ft 0 kts 192°
2026-05-08 03:58 39.85444 -104.67219 5392 ft 2 kts 193°
2026-05-08 03:58 39.85460 -104.67215 5389 ft 2 kts 191°
2026-05-08 03:59 39.85477 -104.67211 5385 ft 2 kts 189°
2026-05-08 03:59 39.85493 -104.67208 5388 ft 2 kts 187°
2026-05-08 03:59 39.85510 -104.67205 5388 ft 2 kts 184°
2026-05-08 03:59 39.85526 -104.67204 5386 ft 2 kts 180°
2026-05-08 04:00 39.85542 -104.67205 5386 ft 2 kts 176°
2026-05-08 04:00 39.85559 -104.67207 5386 ft 2 kts 167°
2026-05-08 04:00 39.85574 -104.67214 5385 ft 2 kts 150°
2026-05-08 04:00 39.85587 -104.67228 5385 ft 2 kts 119°
2026-05-08 04:01 39.85592 -104.67243 5387 ft 1 kts 94°
2026-05-08 04:01 39.85592 -104.67244 5387 ft 0 kts 94°
2026-05-08 04:09 39.85593 -104.67233 5387 ft 4 kts 81°
2026-05-08 04:09 39.85638 -104.67173 5387 ft 9 kts 13°
2026-05-08 04:10 39.85693 -104.67203 5386 ft 6 kts 291°
2026-05-08 04:10 39.85688 -104.67267 5386 ft 8 kts 255°
2026-05-08 04:10 39.85668 -104.67350 5388 ft 11 kts 256°
2026-05-08 04:10 39.85665 -104.67421 5387 ft 13 kts 270°
2026-05-08 04:11 39.85665 -104.67561 5386 ft 17 kts 270°
2026-05-08 04:11 39.85666 -104.67716 5385 ft 17 kts 270°
2026-05-08 04:11 39.85667 -104.67876 5385 ft 18 kts 271°
2026-05-08 04:11 39.85669 -104.68042 5385 ft 18 kts 270°
2026-05-08 04:12 39.85678 -104.68186 5376 ft 12 kts 281°
2026-05-08 04:12 39.85686 -104.68297 5383 ft 13 kts 272°
2026-05-08 04:12 39.85657 -104.68400 5376 ft 12 kts 213°
2026-05-08 04:12 39.85581 -104.68407 5376 ft 10 kts 178°
2026-05-08 04:13 39.85517 -104.68404 5381 ft 8 kts 178°
2026-05-08 04:13 39.85464 -104.68404 5382 ft 8 kts 180°
2026-05-08 04:13 39.85404 -104.68404 5385 ft 9 kts 180°
2026-05-08 04:13 39.85338 -104.68405 5385 ft 13 kts 180°
2026-05-08 04:14 39.85249 -104.68410 5386 ft 12 kts 194°
2026-05-08 04:14 39.85205 -104.68495 5376 ft 12 kts 269°
2026-05-08 04:14 39.85204 -104.68630 5376 ft 18 kts 270°
2026-05-08 04:14 39.85200 -104.68813 5366 ft 23 kts 268°
2026-05-08 04:15 39.85197 -104.69025 5360 ft 21 kts 269°
2026-05-08 04:15 39.85197 -104.69179 5355 ft 19 kts 271°
2026-05-08 04:15 39.85199 -104.69378 5348 ft 25 kts 271°
2026-05-08 04:15 39.85202 -104.69560 5344 ft 15 kts 274°
2026-05-08 04:16 39.85261 -104.69657 5344 ft 15 kts 349°
2026-05-08 04:16 39.85368 -104.69661 5342 ft 19 kts
2026-05-08 04:16 39.85679 -104.69656 5347 ft 72 kts
2026-05-08 04:16 39.86357 -104.69646 5341 ft 122 kts
2026-05-08 04:17 39.87356 -104.69636 5344 ft 164 kts
2026-05-08 04:17 39.88580 -104.69671 5646 ft 179 kts 359°
2026-05-08 04:17 39.89792 -104.69679 6380 ft 171 kts 359°
2026-05-08 04:17 39.91010 -104.69622 6696 ft 183 kts
2026-05-08 04:18 39.92218 -104.68913 6786 ft 206 kts 44°
2026-05-08 04:18 39.92974 -104.67237 6983 ft 224 kts 65°
2026-05-08 04:18 39.93577 -104.65279 7163 ft 241 kts 66°
2026-05-08 04:18 39.94136 -104.63131 7380 ft 259 kts 74°
2026-05-08 04:19 39.94556 -104.60749 7577 ft 280 kts 76°
2026-05-08 04:19 39.94961 -104.58216 8035 ft 289 kts 76°
2026-05-08 04:19 39.95361 -104.55632 8645 ft 293 kts 76°
2026-05-08 04:19 39.95762 -104.53007 9246 ft 297 kts 76°
2026-05-08 04:20 39.96166 -104.50352 9875 ft 301 kts 75°
2026-05-08 04:20 39.96578 -104.47637 10309 ft 312 kts 75°
2026-05-08 04:20 39.97007 -104.44826 10543 ft 329 kts 75°
2026-05-08 04:20 39.97461 -104.41828 10791 ft 345 kts 75°
2026-05-08 04:21 39.97935 -104.38687 11027 ft 361 kts 76°
2026-05-08 04:21 39.98425 -104.35417 11264 ft 375 kts 76°
2026-05-08 04:21 39.98932 -104.32016 11571 ft 386 kts 76°
2026-05-08 04:21 39.99450 -104.28535 12022 ft 392 kts 76°
2026-05-08 04:22 39.99971 -104.25022 12528 ft 396 kts 76°
2026-05-08 04:22 40.00496 -104.21477 13043 ft 400 kts 76°
2026-05-08 04:22 40.01026 -104.17898 13560 ft 404 kts 76°
2026-05-08 04:22 40.01559 -104.14288 14032 ft 407 kts 76°
2026-05-08 04:23 40.02099 -104.10629 14526 ft 411 kts 76°
2026-05-08 04:23 40.02632 -104.07008 15018 ft 413 kts 76°
2026-05-08 04:23 40.03175 -104.03306 15520 ft 416 kts 76°
2026-05-08 04:23 40.03721 -103.99582 16032 ft 419 kts 76°
2026-05-08 04:24 40.04271 -103.95817 16548 ft 422 kts 76°
2026-05-08 04:24 40.04822 -103.92045 17041 ft 425 kts 76°
2026-05-08 04:24 40.05377 -103.88228 17537 ft 428 kts 76°
2026-05-08 04:24 40.05934 -103.84390 18031 ft 431 kts 76°
2026-05-08 04:25 40.06491 -103.80540 18465 ft 435 kts 76°
2026-05-08 04:25 40.07053 -103.76650 18892 ft 437 kts 76°
2026-05-08 04:25 40.07611 -103.72777 19332 ft 440 kts 76°
2026-05-08 04:25 40.08176 -103.68844 19767 ft 442 kts 76°
2026-05-08 04:26 40.08743 -103.64888 20231 ft 445 kts 76°
2026-05-08 04:26 40.09313 -103.60904 20676 ft 447 kts 76°
2026-05-08 04:26 40.09886 -103.56882 21150 ft 450 kts 76°
2026-05-08 04:26 40.10459 -103.52855 21628 ft 453 kts 76°
2026-05-08 04:27 40.11037 -103.48779 22123 ft 456 kts 76°
2026-05-08 04:27 40.11615 -103.44699 22621 ft 459 kts 76°
2026-05-08 04:27 40.12196 -103.40579 23115 ft 463 kts 76°
2026-05-08 04:27 40.12781 -103.36427 23596 ft 466 kts 76°
2026-05-08 04:28 40.13367 -103.32249 24019 ft 469 kts 76°
2026-05-08 04:28 40.13955 -103.28043 24428 ft 472 kts 76°
2026-05-08 04:28 40.14546 -103.23812 24824 ft 475 kts 76°
2026-05-08 04:28 40.15140 -103.19548 25213 ft 478 kts 76°
2026-05-08 04:29 40.15725 -103.15328 25602 ft 480 kts 76°
2026-05-08 04:29 40.16322 -103.11021 26009 ft 483 kts 76°
2026-05-08 04:29 40.16920 -103.06687 26370 ft 486 kts 76°
2026-05-08 04:29 40.17520 -103.02325 26755 ft 489 kts 76°
2026-05-08 04:30 40.18130 -102.97877 27143 ft 491 kts 76°
2026-05-08 04:30 40.18733 -102.93468 27507 ft 494 kts 76°
2026-05-08 04:30 40.19338 -102.89040 27862 ft 497 kts 76°
2026-05-08 04:30 40.19939 -102.84619 28220 ft 500 kts 76°
2026-05-08 04:31 40.20545 -102.80152 28589 ft 502 kts 76°
2026-05-08 04:31 40.21155 -102.75634 28933 ft 504 kts 76°
2026-05-08 04:31 40.21766 -102.71101 29256 ft 507 kts 76°
2026-05-08 04:31 40.22380 -102.66537 29583 ft 510 kts 76°
2026-05-08 04:32 40.22992 -102.61962 29921 ft 512 kts 76°
2026-05-08 04:32 40.23606 -102.57366 30189 ft 514 kts 76°
2026-05-08 04:32 40.24222 -102.52738 30458 ft 515 kts 76°
2026-05-08 04:32 40.24835 -102.48111 30847 ft 514 kts 76°
2026-05-08 04:33 40.25442 -102.43512 31242 ft 512 kts 76°
2026-05-08 04:33 40.26047 -102.38916 31632 ft 511 kts 76°
2026-05-08 04:33 40.26650 -102.34326 31983 ft 510 kts 76°
2026-05-08 04:33 40.27249 -102.29755 32306 ft 510 kts 76°
2026-05-08 04:34 40.27839 -102.25234 32664 ft 508 kts 76°
2026-05-08 04:34 40.28430 -102.20690 33025 ft 507 kts 76°
2026-05-08 04:34 40.29022 -102.16128 33368 ft 506 kts 76°
2026-05-08 04:34 40.29610 -102.11584 33673 ft 506 kts 76°
2026-05-08 04:35 40.30197 -102.07034 33991 ft 504 kts 76°
2026-05-08 04:35 40.30778 -102.02514 34238 ft 505 kts 76°
2026-05-08 04:35 40.31361 -101.97967 34410 ft 506 kts 76°
2026-05-08 04:35 40.31943 -101.93407 34614 ft 507 kts 76°
2026-05-08 04:36 40.32522 -101.88861 34828 ft 508 kts 76°
2026-05-08 04:36 40.33105 -101.84263 35018 ft 509 kts 76°
2026-05-08 04:36 40.33685 -101.79680 35227 ft 510 kts 76°
2026-05-08 04:36 40.34254 -101.75161 35400 ft 511 kts 76°
2026-05-08 04:37 40.34832 -101.70562 35607 ft 512 kts 76°
2026-05-08 04:37 40.35409 -101.65950 35781 ft 512 kts 77°
2026-05-08 04:37 40.35986 -101.61325 35953 ft 513 kts 77°
2026-05-08 04:37 40.36560 -101.56709 36112 ft 515 kts 77°
2026-05-08 04:38 40.37136 -101.52067 36297 ft 515 kts 77°
2026-05-08 04:38 40.37709 -101.47424 36458 ft 516 kts 77°
2026-05-08 04:38 40.38280 -101.42785 36604 ft 517 kts 77°
2026-05-08 04:38 40.38825 -101.38096 36753 ft 519 kts 79°
2026-05-08 04:39 40.39263 -101.33382 36891 ft 521 kts 80°
2026-05-08 04:39 40.39649 -101.28635 36910 ft 525 kts 81°
2026-05-08 04:39 40.40400 -101.19075 36894 ft 527 kts 81°
2026-05-08 04:40 40.41183 -101.09514 36887 ft 527 kts 81°
2026-05-08 04:40 40.41984 -101.00014 36884 ft 527 kts 81°
2026-05-08 04:41 40.42799 -100.90383 36884 ft 528 kts 81°
2026-05-08 04:41 40.43594 -100.80866 36887 ft 528 kts 81°
2026-05-08 04:42 40.44387 -100.71268 36887 ft 529 kts 81°
2026-05-08 04:42 40.45171 -100.61658 36888 ft 530 kts 81°
2026-05-08 04:43 40.45947 -100.52040 36883 ft 530 kts 81°
2026-05-08 04:43 40.46717 -100.42395 36879 ft 531 kts 81°
2026-05-08 04:44 40.47480 -100.32737 36886 ft 531 kts 81°
2026-05-08 04:44 40.48230 -100.23142 36883 ft 532 kts 81°
2026-05-08 04:45 40.48978 -100.13471 36882 ft 532 kts 81°
2026-05-08 04:45 40.49719 -100.03787 36886 ft 533 kts 81°
2026-05-08 04:46 40.50710 -99.94166 36879 ft 531 kts 76°
2026-05-08 04:46 40.52121 -99.84634 36888 ft 531 kts 75°
2026-05-08 04:47 40.53557 -99.75158 36891 ft 531 kts 76°
2026-05-08 04:47 40.54943 -99.65629 36894 ft 531 kts 76°
2026-05-08 04:48 40.56299 -99.56045 36891 ft 532 kts 76°
2026-05-08 04:48 40.57641 -99.46468 36895 ft 532 kts 76°
2026-05-08 04:49 40.58978 -99.36878 36896 ft 532 kts 76°
2026-05-08 04:49 40.60299 -99.27358 36896 ft 532 kts 76°
2026-05-08 04:50 40.61624 -99.17754 36908 ft 533 kts 76°
2026-05-08 04:50 40.62925 -99.08258 36917 ft 533 kts 76°
2026-05-08 04:51 40.64234 -98.98638 36918 ft 534 kts 77°
2026-05-08 04:51 40.65536 -98.89016 36916 ft 534 kts 77°
2026-05-08 04:52 40.66831 -98.79372 36914 ft 535 kts 77°
2026-05-08 04:52 40.68117 -98.69742 36906 ft 535 kts 77°
2026-05-08 04:53 40.69402 -98.60049 36907 ft 536 kts 77°
2026-05-08 04:53 40.70661 -98.50494 36901 ft 536 kts 77°
2026-05-08 04:54 40.71921 -98.40858 36908 ft 537 kts 77°
2026-05-08 04:54 40.73181 -98.31162 36907 ft 537 kts 77°
2026-05-08 04:55 40.74433 -98.21462 36904 ft 538 kts 77°
2026-05-08 04:55 40.75480 -98.13303 36903 ft 538 kts 77°
2026-05-08 04:56 40.76712 -98.03632 36905 ft 539 kts 77°
2026-05-08 04:56 40.77946 -97.93881 36907 ft 539 kts 78°
2026-05-08 04:57 40.79176 -97.84098 36910 ft 540 kts 78°
2026-05-08 04:57 40.80397 -97.74310 36903 ft 540 kts 78°
2026-05-08 04:58 40.81610 -97.64515 36895 ft 541 kts 78°
2026-05-08 04:58 40.82821 -97.54672 36906 ft 542 kts 78°
2026-05-08 04:59 40.84012 -97.44915 36921 ft 542 kts 78°
2026-05-08 04:59 40.85207 -97.35057 36906 ft 543 kts 78°
2026-05-08 05:00 40.86391 -97.25207 36903 ft 544 kts 78°
2026-05-08 05:00 40.87572 -97.15327 36910 ft 544 kts 79°
2026-05-08 05:01 40.88745 -97.05434 36914 ft 545 kts 79°
2026-05-08 05:01 40.89911 -96.95523 36915 ft 546 kts 79°
2026-05-08 05:02 40.91072 -96.85580 36918 ft 547 kts 79°
2026-05-08 05:02 40.92218 -96.75707 36916 ft 547 kts 79°
2026-05-08 05:03 40.94261 -96.66081 36918 ft 543 kts 66°
2026-05-08 05:03 40.97007 -96.56774 36912 ft 543 kts 65°
2026-05-08 05:04 40.99733 -96.47457 36900 ft 544 kts 66°
2026-05-08 05:04 41.02354 -96.38048 36906 ft 545 kts 67°
2026-05-08 05:05 41.04933 -96.28572 36911 ft 546 kts 67°
2026-05-08 05:05 41.07500 -96.19094 36915 ft 547 kts 67°
2026-05-08 05:06 41.10067 -96.09596 36918 ft 547 kts 67°
2026-05-08 05:06 41.12618 -96.00129 36899 ft 548 kts 68°
2026-05-08 05:07 41.15182 -95.90582 36899 ft 549 kts 68°
2026-05-08 05:07 41.17739 -95.81024 36899 ft 549 kts 68°
2026-05-08 05:08 41.20291 -95.71447 36912 ft 550 kts 68°
2026-05-08 05:08 41.22834 -95.61868 36908 ft 551 kts 68°
2026-05-08 05:09 41.25372 -95.52270 36910 ft 551 kts 68°
2026-05-08 05:09 41.27910 -95.42632 36908 ft 552 kts 68°
2026-05-08 05:10 41.31682 -95.28242 36918 ft 553 kts 68°
2026-05-08 05:11 41.34208 -95.18553 36918 ft 554 kts 68°
2026-05-08 05:11 41.36729 -95.08847 36919 ft 554 kts 68°
2026-05-08 05:12 41.39239 -94.99142 36913 ft 555 kts 69°
2026-05-08 05:12 41.41748 -94.89406 36915 ft 555 kts 69°
2026-05-08 05:13 41.44229 -94.79738 36921 ft 556 kts 69°
2026-05-08 05:13 41.46743 -94.69902 36920 ft 556 kts 69°
2026-05-08 05:14 41.49228 -94.60137 36920 ft 556 kts 69°
2026-05-08 05:14 41.51690 -94.50425 36924 ft 557 kts 69°
2026-05-08 05:15 41.54164 -94.40624 36918 ft 557 kts 69°
2026-05-08 05:15 41.56631 -94.30814 36916 ft 557 kts 69°
2026-05-08 05:16 41.59086 -94.21005 36916 ft 558 kts 69°
2026-05-08 05:16 41.61540 -94.11165 36914 ft 558 kts 69°
2026-05-08 05:17 41.63988 -94.01305 36916 ft 558 kts 69°
2026-05-08 05:17 41.66413 -93.91495 36923 ft 558 kts 69°
2026-05-08 05:18 41.68843 -93.81627 36938 ft 559 kts 69°
2026-05-08 05:18 41.71235 -93.71841 36930 ft 548 kts 69°
2026-05-08 05:19 41.73600 -93.62160 36940 ft 545 kts 69°
2026-05-08 05:19 41.75951 -93.52504 36940 ft 545 kts 69°
2026-05-08 05:20 41.78273 -93.42925 36937 ft 545 kts 69°
2026-05-08 05:20 41.80604 -93.33257 36930 ft 545 kts 69°
2026-05-08 05:21 41.82922 -93.23601 36919 ft 544 kts 69°
2026-05-08 05:21 41.85232 -93.13940 36921 ft 543 kts 69°
2026-05-08 05:22 41.87527 -93.04297 36926 ft 543 kts 69°
2026-05-08 05:22 41.89821 -92.94625 36940 ft 542 kts 69°
2026-05-08 05:23 41.92087 -92.85024 36926 ft 542 kts 70°
2026-05-08 05:23 41.94363 -92.75344 36932 ft 542 kts 70°
2026-05-08 05:24 41.96623 -92.65688 36929 ft 542 kts 70°
2026-05-08 05:24 41.98870 -92.56044 36923 ft 541 kts 70°
2026-05-08 05:25 42.01119 -92.46350 36926 ft 541 kts 70°
2026-05-08 05:25 42.03339 -92.36742 36931 ft 541 kts 70°
2026-05-08 05:26 42.05579 -92.27005 36936 ft 541 kts 70°
2026-05-08 05:26 42.07786 -92.17369 36945 ft 542 kts 70°
2026-05-08 05:27 42.09995 -92.07680 36950 ft 542 kts 70°
2026-05-08 05:27 42.12204 -91.97953 36952 ft 542 kts 70°
2026-05-08 05:28 42.14403 -91.88224 36950 ft 542 kts 70°
2026-05-08 05:28 42.16587 -91.78521 36948 ft 543 kts 70°
2026-05-08 05:29 42.18774 -91.68757 36943 ft 543 kts 70°
2026-05-08 05:29 42.20951 -91.58996 36940 ft 543 kts 70°
2026-05-08 05:30 42.23104 -91.49298 36943 ft 543 kts 70°
2026-05-08 05:30 42.25267 -91.39515 36944 ft 544 kts 70°
2026-05-08 05:31 42.27435 -91.29662 36945 ft 544 kts 70°
2026-05-08 05:31 42.29565 -91.19938 36943 ft 544 kts 70°
2026-05-08 05:32 42.31704 -91.10130 36946 ft 545 kts 70°
2026-05-08 05:32 42.33841 -91.00279 36946 ft 545 kts 70°
2026-05-08 05:33 42.35966 -90.90442 36957 ft 546 kts 70°
2026-05-08 05:33 42.38086 -90.80584 36966 ft 546 kts 70°
2026-05-08 05:34 42.40233 -90.70718 36963 ft 546 kts 68°
2026-05-08 05:34 42.42954 -90.61162 36965 ft 543 kts 63°
2026-05-08 05:35 42.45951 -90.51775 36964 ft 543 kts 62°
2026-05-08 05:35 42.48919 -90.42366 36961 ft 544 kts 63°
2026-05-08 05:36 42.51819 -90.32938 36963 ft 545 kts 63°
2026-05-08 05:36 42.54706 -90.23437 36968 ft 545 kts 63°
2026-05-08 05:37 42.57581 -90.13931 36964 ft 545 kts 63°
2026-05-08 05:37 42.60454 -90.04405 36961 ft 545 kts 63°
2026-05-08 05:38 42.63327 -89.94851 36961 ft 546 kts 63°
2026-05-08 05:38 42.66193 -89.85288 36961 ft 546 kts 63°
2026-05-08 05:39 42.69023 -89.75811 36962 ft 546 kts 63°
2026-05-08 05:39 42.71877 -89.66214 36965 ft 546 kts 63°
2026-05-08 05:40 42.74718 -89.56626 36965 ft 546 kts 63°
2026-05-08 05:40 42.77549 -89.47040 36963 ft 546 kts 63°
2026-05-08 05:41 42.80354 -89.37503 36965 ft 546 kts 63°
2026-05-08 05:41 42.83184 -89.27842 36973 ft 545 kts 63°
2026-05-08 05:42 42.85970 -89.18299 36972 ft 545 kts 63°
2026-05-08 05:42 42.88759 -89.08709 36969 ft 544 kts 64°
2026-05-08 05:43 42.91542 -88.99104 36956 ft 544 kts 64°
2026-05-08 05:43 42.94315 -88.89499 36962 ft 544 kts 64°
2026-05-08 05:44 42.97069 -88.79920 36965 ft 544 kts 64°
2026-05-08 05:44 42.99821 -88.70311 36969 ft 544 kts 64°
2026-05-08 05:45 43.02105 -88.62312 36974 ft 544 kts 64°
2026-05-08 05:45 43.04868 -88.52599 36980 ft 544 kts 64°
2026-05-08 05:46 43.07582 -88.43020 36980 ft 544 kts 64°
2026-05-08 05:46 43.10314 -88.33342 36984 ft 544 kts 64°
2026-05-08 05:47 43.13046 -88.23669 36981 ft 544 kts 63°
2026-05-08 05:47 43.15840 -88.14048 36983 ft 544 kts 63°
2026-05-08 05:48 43.18628 -88.04476 36983 ft 544 kts 63°
2026-05-08 05:48 43.21413 -87.94832 36980 ft 544 kts 63°
2026-05-08 05:49 43.24184 -87.85167 36974 ft 544 kts 63°
2026-05-08 05:49 43.26946 -87.75493 36971 ft 544 kts 63°
2026-05-08 05:50 43.29704 -87.65801 36967 ft 544 kts 63°
2026-05-08 05:50 43.32454 -87.56103 36969 ft 544 kts 64°
2026-05-08 05:51 43.35192 -87.46404 36969 ft 544 kts 64°
2026-05-08 05:51 43.37905 -87.36755 36971 ft 545 kts 64°
2026-05-08 05:52 43.40628 -87.27032 36960 ft 545 kts 64°
2026-05-08 05:52 43.43342 -87.17301 36965 ft 545 kts 64°
2026-05-08 05:53 43.46025 -87.07648 36975 ft 545 kts 64°
2026-05-08 05:53 43.48723 -86.97901 36974 ft 545 kts 64°
2026-05-08 05:54 43.51416 -86.88135 36973 ft 544 kts 64°
2026-05-08 05:54 43.54100 -86.78364 36976 ft 544 kts 64°
2026-05-08 05:55 43.56769 -86.68605 36973 ft 544 kts 64°
2026-05-08 05:55 43.59427 -86.58849 36968 ft 543 kts 64°
2026-05-08 05:56 43.62081 -86.49070 36965 ft 543 kts 64°
2026-05-08 05:56 43.64707 -86.39351 36964 ft 543 kts 65°
2026-05-08 05:57 43.67341 -86.29570 36958 ft 543 kts 65°
2026-05-08 05:57 43.69960 -86.19800 36961 ft 543 kts 65°
2026-05-08 05:58 43.72579 -86.09992 36965 ft 543 kts 65°
2026-05-08 05:58 43.75189 -86.00176 36954 ft 543 kts 65°
2026-05-08 05:59 43.77788 -85.90365 36955 ft 543 kts 65°
2026-05-08 05:59 43.80360 -85.80611 36953 ft 543 kts 65°
2026-05-08 06:00 43.82940 -85.70790 36950 ft 543 kts 65°
2026-05-08 06:00 43.85518 -85.60934 36948 ft 543 kts 65°
2026-05-08 06:01 43.88081 -85.51095 36946 ft 543 kts 65°
2026-05-08 06:01 43.90641 -85.41228 36954 ft 543 kts 65°
2026-05-08 06:02 43.93184 -85.31386 36950 ft 542 kts 66°
2026-05-08 06:02 43.95725 -85.21510 36956 ft 542 kts 66°
2026-05-08 06:03 43.98252 -85.11645 36964 ft 542 kts 66°
2026-05-08 06:03 44.00765 -85.01792 36965 ft 542 kts 66°
2026-05-08 06:04 44.03260 -84.91973 36958 ft 542 kts 66°
2026-05-08 06:04 44.05761 -84.82085 36954 ft 542 kts 66°
2026-05-08 06:05 44.08252 -84.72198 36952 ft 541 kts 66°
2026-05-08 06:05 44.10732 -84.62310 36954 ft 541 kts 66°
2026-05-08 06:06 44.13205 -84.52407 36950 ft 541 kts 67°
2026-05-08 06:06 44.15668 -84.42502 36947 ft 541 kts 67°
2026-05-08 06:07 44.18290 -84.32773 36954 ft 538 kts 62°
2026-05-08 06:07 44.21362 -84.23295 36965 ft 536 kts 60°
2026-05-08 06:08 44.24501 -84.13860 36953 ft 536 kts 61°
2026-05-08 06:08 44.27592 -84.04381 36957 ft 536 kts 62°
2026-05-08 06:09 44.30639 -83.94888 36949 ft 536 kts 62°
2026-05-08 06:09 44.33676 -83.85360 36952 ft 537 kts 62°
2026-05-08 06:10 44.36709 -83.75816 36946 ft 537 kts 62°
2026-05-08 06:10 44.39739 -83.66251 36937 ft 537 kts 62°
2026-05-08 06:11 44.42761 -83.56681 36931 ft 538 kts 62°